Regional Weather Roundup
Issued by NWS

Home | Current Version | Previous Version | Graphics & Text | Print | Product List | Glossary On
Versions: 1 2 3 4 5 6 7 8 9 10 11 12 13 14 15 16 17 18 19 20 21 22 23 24 25 26 27 28 29 30 31 32 33 34 35 36 37 38 39 40 41 42 43 44 45 46 47 48 49 50
000
ASUS45 KABQ 240901
RWRNM
NEW MEXICO REGIONAL WEATHER ROUNDUP
NATIONAL WEATHER SERVICE ALBUQUERQUE NM
300 AM MDT SUN MAY 24 2015

NOTE: "FAIR" MEANS FEW OR NO CLOUDS BELOW 12,000 FEET AGL WITH NO
       SIGNIFICANT WEATHER OR OBSTRUCTIONS TO VISION.

      THIS PRODUCT IS RELEASED AS TWO VERSIONS.  ONE VERSION NEAR
      THE TOP OF THE HOUR CONTAINING PRELIMINARY DATA FROM ALBUQUERQUE
      AND OTHER STATIONS.  A FINAL VERSION WITH ADDITIONAL DATA IS
      ISSUED ABOUT 10 MINUTES AFTER THE HOUR.

NMZ501-503-504-510>518-241000-
NORTHWEST PLATEAU/NORTHCENTRAL MOUNTAINS

CITY           SKY/WX    TMP DP  RH WIND       PRES   REMARKS
FARMINGTON     LGT RAIN  45  44  97 W7        29.99F
SANTA FE       CLEAR     46  31  55 N13       30.00R
TAOS           PTCLDY    34  25  69 CALM      30.04S
ANGEL FIRE     FAIR      30  27  89 CALM      30.07S

$$
NMZ402-403-502-505>509-241000-
WESTCENTRAL MOUNTAINS/SOUTHWEST MOUNTAINS

CITY           SKY/WX    TMP DP  RH WIND       PRES   REMARKS
GALLUP         CLOUDY    43  34  70 S3        30.03F
GRANTS         MOCLDY    38  34  84 CALM      30.07R
SILVER CITY      N/A     46  23  39 NW12      30.05S

$$
NMZ407-409-411-412-241000-
SOUTHERN DESERTS

CITY           SKY/WX    TMP DP  RH WIND       PRES   REMARKS
LORDSBURG      FAIR      50  27  40 W9        30.02S
DEMING         CLEAR     50  25  37 W7        30.00S
HOLLOMAN AFB   PTCLDY    53  29  40 E6        29.93S
ALAMOGORDO     CLEAR     50  21  32 SE3       29.95S
T OR C         CLEAR     55  23  28 W5        29.97S

$$
NMZ519>523-241000-
CENTRAL VALLEYS/CENTRAL HIGHLANDS

CITY           SKY/WX    TMP DP  RH WIND       PRES   REMARKS
ALBUQUERQUE    PTCLDY    53  35  50 NW9       30.01S
DOUBLE EAGLE   CLEAR     45  36  70 NW8       30.02F
MORIARTY ARPT  FAIR      40  32  72 N5        30.01S
CLINES CORNERS NOT AVBL
BELEN          FAIR      49  35  58 NW7       30.00F
SOCORRO        NOT AVBL

$$
NMZ524>526-539-540-241000-
SOUTHCENTRAL MOUNTAINS

CITY           SKY/WX    TMP DP  RH WIND       PRES   REMARKS
RUIDOSO        NOT AVBL

$$
NMZ527>531-241000-
NORTHEAST HIGHLANDS/NORTHEAST PLAINS

CITY           SKY/WX    TMP DP  RH WIND       PRES   REMARKS
LAS VEGAS      CLEAR     42  26  53 N7        29.98F
RATON          CLEAR     39  33  79 NE6       29.94F WCI  35
CLAYTON        CLOUDY    54  51  90 SW5       29.90S

$$
NMZ532>537-241000-
EASTCENTRAL PLAINS

CITY           SKY/WX    TMP DP  RH WIND       PRES   REMARKS
TUCUMCARI      CLEAR     51  47  86 NW7       29.85R
CANNON AFB     CLEAR     51  48  91 SW6       29.88S
CLOVIS AIRPORT CLEAR     50  46  87 SE14      29.90R

$$
NMZ028-029-538-241000-
SOUTHEAST PLAINS

CITY           SKY/WX    TMP DP  RH WIND       PRES   REMARKS
ROSWELL        CLEAR     50  46  86 SE6       29.86R
ARTESIA        CLEAR     52  39  62 CALM      29.89R
CARLSBAD       CLEAR     51  49  92 S5        29.88R
HOBBS          MOCLDY    54  54 100 S5        29.92S


$$


USA.gov is the U.S. government's official web portal to all federal, state and local government web resources and services.